Terug naar catalogus

FENGYUN 1C DEB

ActiefSSO
NORAD 31146·DEBRIS·🇨🇳 China

Gelanceerd May 10, 1999 vanaf Taiyuan Satellite Launch Center

Loading…

Volgende Passages (komende 24 uur)

TLE

VersSource: Space-Track

Epoch: Sep 13, 2026, 07:10 UTC

1 31146U 99025BGY 26256.29893242  .00000893  00000-0  29623-3 0  9995
2 31146  99.0614 202.3195 0211919  93.0964 269.4486 14.28482533  6759

Volg FENGYUN 1C DEB in realtime met AllMySat

Download on the App Store